[[{"header":{"parameterUnit":"m.s-1","parameterCategory":2,"la1":30.2991,"la2":30.254,"lo1":-89.0895,"lo2":-89.0444,"dy":0.0017,"dx":0.0017,"nx":28,"ny":28,"refTime":"2024-07-13T21:00:00:Z","depth":"0","parameterNumber":2,"parameterNumberName":"U-component_of_CURRENTS"},"data":[0,0,0,0,0,0,0,0,0,0,0,0,0,0,0,0,0,0,0,0,0,0,0,0,0,0,0,0,0,0,0,0,0,0,0,0,0,0,0,0,0,0,0,0,0,0,0,0,0,0,0,0,0,0,0,0,0,0,0.2615,0.2615,0,0.2602,0.2602,0.2602,0.2592,0.2592,0.2592,0.2592,0.2678,0.268,0.2682,0,0,0,0,0,0,0,0,0,0,0,0,0,0.2569,0.257,0.2615,0.2615,0.2615,0.2602,0.2602,0.2602,0.2592,0.2592,0.2592,0.2592,0.2677,0.268,0.2682,0,0,0,0,0,0,0,0,0,0,0,0,0,0.2575,0.257,0.2615,0.261,0.2609,0.2602,0.2602,0.2602,0.2592,0.2592,0.2592,0.2592,0.2676,0.2679,0.2683,0.2702,0,0,0.2693,0.2694,0,0,0,0,0,0,0,0,0.2574,0.2576,0.2611,0.261,0.261,0.26,0.2617,0.2641,0.2592,0.2597,0.2592,0.2592,0.2662,0.2666,0.266,0.2706,0.271,0.2693,0.2695,0.2697,0.2698,0,0,0,0,0,0,0,0.2574,0.2576,0.2609,0.2611,0.261,0.2586,0.2588,0.262,0.263,0.2597,0.2596,0.2597,0.2662,0.2657,0.2663,0.2711,0.2693,0.2696,0.2698,0.27,0.2815,0.2815,0,0,0,0,0,0,0.2582,0.2576,0.2609,0.2608,0.2593,0.2588,0.2589,0.2602,0.2628,0.2631,0.2597,0.2597,0.2651,0.2659,0.2666,0.2698,0.2697,0.27,0.2702,0.2813,0.2815,0.2816,0,0,0,0,0,0,0.2581,0.2585,0.261,0.2592,0.2594,0.2589,0.2603,0.2602,0.2595,0.2627,0.2632,0.2592,0.2652,0.2661,0.2696,0.2701,0.2701,0.2704,0.2812,0.2814,0.2815,0.2759,0,0,0,0,0,0,0.258,0.2585,0.2594,0.2593,0.2595,0.2605,0.2603,0.2601,0.2596,0.2595,0.2625,0.2632,0.2652,0.2691,0.2699,0.2706,0.2707,0.2811,0.2813,0.2815,0.2759,0.2758,0.2757,0,0,0,0,0,0.2579,0.2589,0.2595,0.2598,0.2609,0.2605,0.2604,0.2599,0.2596,0.2593,0.2615,0.2631,0.271,0.2694,0.2704,0.2712,0.281,0.2812,0.2815,0.276,0.2759,0.2757,0,0,0,0,0,0,0.2567,0.2589,0.2595,0.2611,0.261,0.2604,0.2601,0.2597,0.2608,0.2613,0.2638,0.2648,0.2687,0.2711,0.2693,0.2755,0.2766,0.277,0.2721,0.272,0.2719,0.2709,0.271,0,0,0,0,0,0.2571,0.2589,0.2598,0.2608,0.2609,0.2605,0.2602,0.26,0.2609,0.2612,0.2629,0.2663,0.2704,0.2719,0.2759,0.2783,0.2815,0.28,0.2799,0.2798,0.28,0.2861,0.2865,0.2823,0.2823,0.2823,0,0,0.2573,0.2583,0.2595,0.2606,0.2605,0.2596,0.2602,0.26,0.2592,0.2625,0.2623,0.2664,0.2714,0.2745,0.2764,0.2762,0.2823,0.2801,0.2799,0.2802,0.2863,0.2867,0.2871,0.2825,0.2825,0.2825,0,0,0.2559,0.259,0.2589,0.259,0.259,0.2592,0.2591,0.2588,0.2588,0.2598,0.2629,0.2666,0.2709,0.2742,0.2767,0.2787,0.2823,0.2808,0.2783,0.2841,0.2845,0.2848,0.2869,0.2875,0.2798,0.2797,0.2797,0,0.2553,0.2555,0.2584,0.2571,0.2567,0.2588,0.257,0.2577,0.2583,0.2586,0.2596,0.2668,0.2708,0.2751,0.276,0.2783,0.2814,0.2775,0.2837,0.2842,0.2846,0.2868,0.2875,0.2795,0.2795,0.2796,0.2796,0,0.2531,0.2528,0.2526,0.2524,0.2526,0.2519,0.2535,0.254,0.2549,0.2553,0.2594,0.2647,0.269,0.2712,0.2742,0.2795,0.2806,0.2833,0.2831,0.2846,0.2868,0.2877,0.2792,0.2792,0.2793,0.2794,0,0,0.252,0.2511,0.2509,0.2488,0.2501,0.2494,0.2503,0.2507,0.2504,0.2534,0.2538,0.2613,0.2644,0.2679,0.2726,0.2772,0.2823,0.2812,0.2816,0.2816,0.2933,0.2826,0.2824,0.2866,0.2867,0.2869,0.2927,0,0.2484,0.2443,0.2458,0.2421,0.2399,0.2432,0.2432,0.2447,0.247,0.2484,0.2552,0.2583,0.2632,0.2658,0.2716,0.2811,0.2848,0.2804,0.2935,0.2938,0.2827,0.2832,0.2658,0.2686,0.2935,0.2936,0.2937,0,0.2449,0.2424,0.2377,0.2355,0.2351,0.2341,0.2351,0.2357,0.2403,0.2423,0.2476,0.2531,0.2613,0.2652,0.2802,0.2775,0.2851,0.2912,0.2916,0.2843,0.2846,0.272,0.2692,0.2534,0.2951,0.295,0.2949,0,0.2402,0.2367,0.2323,0.2317,0.2302,0.2294,0.23,0.2331,0.2338,0.239,0.2405,0.2506,0.2561,0.2683,0.2807,0.282,0.2957,0.2991,0.2955,0.2948,0.2838,0.2817,0.2658,0.3088,0.3088,0.3088,0.3088,0,0.2349,0.2315,0.2294,0.2266,0.2227,0.2241,0.2222,0.2245,0.2282,0.2289,0.2373,0.2405,0.2579,0.2673,0.2794,0.2883,0.295,0.2946,0.2958,0.281,0.2787,0.2676,0.2646,0.309,0.309,0.3089,0.3089,0,0.2295,0.2281,0.2231,0.2206,0.2197,0.2173,0.2175,0.217,0.2207,0.2227,0.2246,0.2349,0.2464,0.2603,0.2788,0.284,0.284,0.2961,0.2748,0.2733,0.2531,0.2506,0.2397,0.2357,0.2931,0.2928,0.2926,0,0.2256,0.222,0.2188,0.2164,0.2148,0.2121,0.2109,0.2134,0.2136,0.2188,0.2199,0.2294,0.2353,0.2538,0.2647,0.2784,0.2741,0.2682,0.2672,0.2472,0.2458,0.2419,0.2393,0.2508,0.2503,0.2499,0.2495,0,0.2184,0.2183,0.2153,0.211,0.2082,0.2051,0.2038,0.203,0.2065,0.2076,0.2109,0.2152,0.2281,0.2324,0.2454,0.2529,0.248,0.2596,0.2461,0.2158,0.2038,0.2019,0.2499,0.2457,0.2461,0.2464,0.2466,0.2467,0.2148,0.2122,0.2095,0.2054,0.2021,0.1983,0.1949,0.1944,0.1933,0.1926,0.2001,0.2012,0.2028,0.2182,0.2215,0.2089,0.2243,0.2037,0.204,0.2031,0.1919,0.2283,0.2208,0.2211,0.2213,0.2214,0.2216,0,0.2089,0.2075,0.2039,0.1981,0.1928,0.1932,0.1898,0.1856,0.1819,0.1822,0.1824,0.177,0.1719,0.1727,0.1637,0.1544,0.1542,0.1478,0.1373,0.14,0.1762,0.1663,0.1376,0.1376,0.1376,0.1376,0.1377,0.1377,0.2062,0.2016,0.2,0.1901,0.1861,0.1775,0.175,0.1696,0.1679,0.1579,0.1523,0.1515,0.1415,0.1213,0.1019,0.1008,0.0956,0.0885,0.0978,0.1175,0.1227,0.1276,0.117,0.0784,0.0784,0.0537,0.0535,0.0533]},{"header":{"parameterUnit":"m.s-1","parameterCategory":2,"la1":30.2991,"la2":30.254,"lo1":-89.0895,"lo2":-89.0444,"dy":0.0017,"dx":0.0017,"nx":28,"ny":28,"refTime":"2024-07-13T21:00:00:Z","depth":"0","parameterNumber":3,"parameterNumberName":"V-component_of_CURRENTS"},"data":[0,0,0,0,0,0,0,0,0,0,0,0,0,0,0,0,0,0,0,0,0,0,0,0,0,0,0,0,0,0,0,0,0,0,0,0,0,0,0,0,0,0,0,0,0,0,0,0,0,0,0,0,0,0,0,0,0,0,0.0999,0.0999,0,0.1017,0.1017,0.1017,0.1034,0.1035,0.1035,0.1035,0.0992,0.0991,0.099,0,0,0,0,0,0,0,0,0,0,0,0,0,0.0966,0.0967,0.0999,0.0999,0.0999,0.1017,0.1017,0.1018,0.1034,0.1035,0.1035,0.1035,0.0993,0.0991,0.099,0,0,0,0,0,0,0,0,0,0,0,0,0,0.0983,0.0967,0.0999,0.1009,0.101,0.1017,0.1017,0.1018,0.1034,0.1035,0.1035,0.1035,0.0993,0.0991,0.0989,0.0974,0,0,0.0984,0.0983,0,0,0,0,0,0,0,0,0.0982,0.0984,0.1008,0.1009,0.101,0.1023,0.099,0.1,0.1034,0.1026,0.1035,0.1035,0.0996,0.0994,0.0999,0.0972,0.097,0.0983,0.0982,0.0982,0.0981,0,0,0,0,0,0,0,0.0981,0.0983,0.1007,0.1008,0.1009,0.1008,0.1011,0.0992,0.1009,0.1027,0.1028,0.1028,0.0996,0.1001,0.0998,0.0969,0.0984,0.0982,0.0981,0.098,0.0938,0.0938,0,0,0,0,0,0,0.0977,0.0982,0.1007,0.1008,0.0995,0.1009,0.1012,0.1019,0.1011,0.101,0.1028,0.1029,0.1004,0.1,0.0996,0.0998,0.0982,0.098,0.0979,0.0938,0.0938,0.0938,0,0,0,0,0,0,0.0977,0.0979,0.1006,0.0994,0.0997,0.1009,0.1017,0.1019,0.1023,0.1012,0.1011,0.1029,0.1004,0.0999,0.0985,0.0995,0.0979,0.0977,0.0938,0.0938,0.0938,0.0987,0,0,0,0,0,0,0.0976,0.0979,0.0984,0.0994,0.0998,0.1011,0.1017,0.102,0.1023,0.1024,0.1012,0.1009,0.1004,0.0988,0.0983,0.0992,0.0976,0.0938,0.0938,0.0938,0.0985,0.0989,0.0992,0,0,0,0,0,0.0975,0.0974,0.0985,0.0987,0.1004,0.1011,0.1013,0.1022,0.1022,0.1026,0.102,0.101,0.0984,0.0986,0.098,0.099,0.0938,0.0938,0.0938,0.0984,0.0988,0.0991,0,0,0,0,0,0,0.095,0.0976,0.0988,0.0993,0.1004,0.1013,0.1015,0.1019,0.1018,0.1018,0.1007,0.1004,0.0998,0.098,0.0982,0.0976,0.096,0.0959,0.0997,0.1,0.1003,0.1019,0.0974,0,0,0,0,0,0.0951,0.0964,0.0983,0.0985,0.0994,0.1005,0.1008,0.1015,0.1015,0.1016,0.1008,0.0997,0.0993,0.0986,0.0976,0.0966,0.0962,0.0968,0.0971,0.0974,0.0981,0.0979,0.0983,0.0938,0.0938,0.0938,0,0,0.0941,0.0955,0.0963,0.0982,0.0993,0.1008,0.1008,0.1014,0.1028,0.1008,0.1016,0.1006,0.0992,0.0993,0.0988,0.0979,0.0986,0.0974,0.0977,0.0983,0.0979,0.0984,0.0988,0.0938,0.0938,0.0938,0,0,0.0921,0.0944,0.095,0.0967,0.0985,0.1001,0.1003,0.1015,0.1027,0.1032,0.1026,0.1021,0.1007,0.1008,0.1005,0.1013,0.1004,0.1006,0.1034,0.1031,0.1035,0.1039,0.1052,0.1056,0.1007,0.1007,0.1007,0,0.0907,0.0922,0.0949,0.0961,0.0976,0.1,0.1009,0.1029,0.1034,0.1043,0.1038,0.1034,0.1019,0.103,0.1039,0.1022,0.1024,0.1025,0.1037,0.1041,0.1043,0.1055,0.1059,0.1009,0.1009,0.1009,0.1008,0,0.0896,0.0914,0.0917,0.0953,0.0973,0.0983,0.1021,0.1038,0.1054,0.107,0.1082,0.1072,0.1069,0.1065,0.1058,0.1071,0.1067,0.1045,0.1033,0.1051,0.1062,0.1066,0.1012,0.1012,0.1011,0.101,0,0,0.0849,0.09,0.0902,0.0923,0.0972,0.0986,0.1025,0.1061,0.1087,0.11,0.1125,0.1125,0.1122,0.1118,0.1106,0.1107,0.1131,0.1089,0.1088,0.1112,0.1141,0.1125,0.1127,0.1112,0.1113,0.1113,0.1146,0,0.0831,0.0849,0.0885,0.0915,0.0935,0.0986,0.1022,0.1063,0.1098,0.113,0.1142,0.1155,0.1143,0.1142,0.1146,0.1137,0.114,0.1125,0.1111,0.1111,0.1102,0.113,0.1147,0.1176,0.115,0.115,0.115,0,0.0814,0.083,0.0848,0.0911,0.0924,0.0949,0.1017,0.1053,0.1118,0.1142,0.1171,0.1185,0.1207,0.1182,0.1194,0.1188,0.1169,0.116,0.116,0.113,0.11,0.115,0.1183,0.1131,0.1155,0.1155,0.1155,0,0.0772,0.0812,0.0825,0.0846,0.0913,0.0935,0.0976,0.1047,0.1087,0.1148,0.1179,0.1211,0.1225,0.1222,0.1218,0.1207,0.1227,0.1201,0.1171,0.117,0.1175,0.1173,0.1164,0.1196,0.1196,0.1196,0.1195,0,0.075,0.0764,0.0805,0.0815,0.0846,0.0904,0.0949,0.1001,0.1073,0.1123,0.1175,0.1214,0.1233,0.1254,0.1239,0.123,0.1242,0.119,0.1179,0.1192,0.1192,0.1136,0.1087,0.1197,0.1197,0.1196,0.1196,0,0.0716,0.0739,0.0761,0.081,0.0828,0.0852,0.0936,0.0976,0.1044,0.1111,0.1133,0.122,0.1255,0.1271,0.1271,0.1252,0.1228,0.1222,0.1248,0.1239,0.1157,0.111,0.1094,0.1146,0.1209,0.1209,0.1208,0,0.0702,0.0704,0.0745,0.076,0.0782,0.0825,0.0867,0.0949,0.0999,0.1113,0.1145,0.121,0.1263,0.1284,0.1273,0.1265,0.122,0.1245,0.1215,0.1166,0.1106,0.1086,0.1132,0.1251,0.1251,0.1251,0.1251,0,0.0674,0.0684,0.0701,0.0727,0.0759,0.0812,0.0874,0.091,0.1013,0.108,0.117,0.1222,0.1267,0.1289,0.1277,0.1265,0.1232,0.1245,0.119,0.1136,0.112,0.1161,0.1222,0.1252,0.1252,0.1252,0.1252,0.1252,0.0647,0.0652,0.067,0.0701,0.0744,0.0805,0.0842,0.0918,0.1002,0.1111,0.1165,0.1248,0.1276,0.1284,0.1264,0.1221,0.1221,0.1183,0.1134,0.1122,0.1156,0.1223,0.1233,0.1233,0.1233,0.1233,0.1233,0,0.0612,0.0627,0.065,0.0691,0.0736,0.0773,0.0856,0.09,0.0989,0.1097,0.1179,0.1251,0.1249,0.124,0.1182,0.1115,0.116,0.1074,0.1056,0.1116,0.1172,0.1157,0.1156,0.1156,0.1156,0.1156,0.1156,0.1156,0.0593,0.0598,0.0619,0.0675,0.0713,0.077,0.0817,0.0891,0.0974,0.109,0.1164,0.1231,0.1221,0.1038,0.0956,0.0968,0.097,0.093,0.0954,0.0958,0.0965,0.0971,0.0947,0.0902,0.0902,0.0969,0.0969,0.0968]}],[{"header":{"parameterUnit":"m.s-1","parameterCategory":2,"la1":30.2991,"la2":30.254,"lo1":-89.0895,"lo2":-89.0444,"dy":0.0017,"dx":0.0017,"nx":28,"ny":28,"refTime":"2024-07-13T21:00:00:Z","depth":"2","parameterNumber":2,"parameterNumberName":"U-component_of_CURRENTS"},"data":[0,0,0,0,0,0,0,0,0,0,0,0,0,0,0,0,0,0,0,0,0,0,0,0,0,0,0,0,0,0,0,0,0,0,0,0,0,0,0,0,0,0,0,0,0,0,0,0,0,0,0,0,0,0,0,0,0,0,0.042,0.0421,0,0.0607,0.0609,0.0612,0.0826,0.0828,0.0831,0.0834,0.081,0.0807,0.0804,0,0,0,0,0,0,0,0,0,0,0,0,0,0.0596,0.059,0.042,0.0422,0.0423,0.0607,0.061,0.0613,0.0825,0.0828,0.0832,0.0835,0.0811,0.0808,0.0804,0,0,0,0,0,0,0,0,0,0,0,0,0,0.0629,0.0588,0.0419,0.0548,0.0561,0.0606,0.061,0.0613,0.0824,0.0829,0.0833,0.0837,0.0813,0.0808,0.0803,0.0692,0,0,0.0789,0.0787,0,0,0,0,0,0,0,0,0.0626,0.0622,0.0527,0.0539,0.0554,0.0693,0.0664,0.0627,0.0823,0.0729,0.0834,0.0839,0.0745,0.0746,0.0782,0.0691,0.069,0.0788,0.0786,0.0784,0.0782,0,0,0,0,0,0,0,0.0623,0.0618,0.0499,0.0529,0.0545,0.0716,0.0723,0.0661,0.0712,0.0738,0.0753,0.0765,0.0752,0.0787,0.0783,0.0689,0.0789,0.0784,0.0781,0.078,0.0731,0.0732,0,0,0,0,0,0,0.0565,0.0612,0.0493,0.0504,0.0596,0.0708,0.0716,0.0648,0.0718,0.0733,0.0761,0.0774,0.0793,0.0788,0.0782,0.0782,0.0784,0.0779,0.0776,0.0729,0.0731,0.0733,0,0,0,0,0,0,0.0567,0.0549,0.0485,0.0566,0.0569,0.0697,0.0622,0.0649,0.0742,0.0736,0.0749,0.0831,0.0796,0.0789,0.0793,0.0778,0.0777,0.0773,0.0727,0.073,0.0732,0.0697,0,0,0,0,0,0,0.057,0.0547,0.0519,0.0557,0.0561,0.0504,0.0619,0.065,0.0736,0.0757,0.0797,0.0798,0.0799,0.08,0.0788,0.0771,0.0769,0.0725,0.0728,0.0731,0.0696,0.0698,0.0699,0,0,0,0,0,0.0574,0.0503,0.0513,0.0503,0.05,0.0502,0.052,0.0635,0.0736,0.0743,0.0817,0.08,0.0812,0.0796,0.0782,0.0763,0.0724,0.0728,0.0731,0.0695,0.0698,0.0699,0,0,0,0,0,0,0.0569,0.0518,0.0532,0.0448,0.047,0.0537,0.0576,0.0649,0.0721,0.0774,0.0795,0.0796,0.079,0.0792,0.0776,0.077,0.0772,0.0773,0.075,0.0752,0.0753,0.0753,0.0765,0,0,0,0,0,0.054,0.0474,0.0466,0.0407,0.0419,0.0507,0.0544,0.0612,0.0666,0.0712,0.074,0.0783,0.0781,0.0785,0.0772,0.0746,0.0728,0.074,0.0741,0.0742,0.074,0.0702,0.0698,0.0744,0.0744,0.0744,0,0,0.0516,0.049,0.0451,0.0405,0.0452,0.0456,0.0543,0.0593,0.0619,0.068,0.074,0.0764,0.0776,0.0769,0.0768,0.0775,0.0724,0.0747,0.0747,0.0744,0.0705,0.0699,0.0695,0.0747,0.0746,0.0746,0,0,0.0478,0.0418,0.0385,0.0391,0.0437,0.0459,0.0473,0.0544,0.0604,0.0635,0.0704,0.073,0.0735,0.0743,0.0746,0.0742,0.0722,0.0762,0.0767,0.0729,0.0724,0.0719,0.0691,0.0684,0.0775,0.0775,0.0775,0,0.0484,0.0409,0.0385,0.0386,0.0403,0.0455,0.0465,0.0495,0.0568,0.0602,0.0651,0.0713,0.0712,0.0708,0.0742,0.0733,0.0733,0.0747,0.0725,0.072,0.0715,0.0688,0.068,0.0773,0.0773,0.0774,0.0774,0,0.0425,0.0405,0.0395,0.038,0.0382,0.0394,0.041,0.0442,0.052,0.0562,0.0599,0.0625,0.068,0.0676,0.0712,0.0696,0.0713,0.0713,0.0705,0.0707,0.0681,0.0673,0.0771,0.0772,0.0772,0.0773,0,0,0.0347,0.0356,0.0363,0.0384,0.0393,0.0385,0.0396,0.041,0.0454,0.0501,0.0546,0.0566,0.0632,0.0645,0.0683,0.0662,0.0628,0.0701,0.07,0.0647,0.057,0.0575,0.0567,0.0637,0.0635,0.0634,0.0564,0,0.0341,0.0347,0.034,0.0351,0.0357,0.0382,0.0378,0.0401,0.0444,0.048,0.051,0.0562,0.0602,0.0665,0.0642,0.0632,0.061,0.0649,0.06,0.0599,0.0579,0.0558,0.0471,0.0402,0.0556,0.0555,0.0554,0,0.0298,0.0312,0.0336,0.036,0.0365,0.0377,0.0399,0.0407,0.0437,0.0488,0.0538,0.0579,0.0586,0.0621,0.0573,0.0612,0.0605,0.0578,0.0574,0.0584,0.0589,0.0429,0.0382,0.0541,0.0542,0.0543,0.0544,0,0.0271,0.0304,0.033,0.0336,0.0359,0.0396,0.0412,0.0439,0.0451,0.0521,0.0553,0.0567,0.0596,0.0566,0.0559,0.0582,0.048,0.0488,0.0468,0.0469,0.0385,0.0381,0.0437,0.0437,0.0437,0.0437,0.0438,0,0.0244,0.0271,0.0342,0.0353,0.0387,0.041,0.0449,0.0481,0.0511,0.0527,0.0586,0.0587,0.059,0.055,0.0534,0.0477,0.046,0.0457,0.0444,0.0376,0.0372,0.0492,0.0499,0.0435,0.0435,0.0436,0.0436,0,0.022,0.0264,0.0295,0.0354,0.0385,0.0415,0.0469,0.0484,0.0537,0.0559,0.0592,0.0589,0.057,0.0542,0.0478,0.0447,0.0387,0.0375,0.0308,0.029,0.0407,0.0414,0.0333,0.0332,0.0332,0.0332,0.0331,0,0.0213,0.0234,0.03,0.0328,0.0378,0.0433,0.0466,0.0512,0.0523,0.0548,0.0542,0.0549,0.0531,0.0425,0.0336,0.0273,0.0373,0.023,0.0248,0.0398,0.0393,0.0401,0.0409,0.0119,0.0117,0.0115,0.0114,0,0.0193,0.0232,0.0243,0.0316,0.0373,0.0405,0.0465,0.0456,0.0506,0.0522,0.0511,0.0495,0.0391,0.028,0.0226,0.0174,0.0234,0.0197,0.0329,0.018,0.0196,0.0193,0.0206,0.0099,0.01,0.0101,0.0102,0.0103,0.0177,0.0179,0.0221,0.029,0.0357,0.0403,0.0429,0.0447,0.0455,0.0453,0.041,0.0384,0.0243,0.0107,0.0079,0.0093,0.008,0.0118,0.0122,0.0128,0.0138,0.0154,0.005,0.0051,0.0052,0.0053,0.0054,0,0.0147,0.0177,0.0205,0.0276,0.0351,0.0433,0.0449,0.0438,0.0459,0.0399,0.0366,0.0183,0.0078,0.0075,0.0016,-0.0035,-0.0059,0.0052,0.0033,0.0042,0.0052,0.0061,-0.0048,-0.0047,-0.0046,-0.0045,0,0,0.0116,0.0136,0.0154,0.0278,0.0384,0.0496,0.0531,0.0479,0.0427,0.0298,0.0268,0.0072,0.0047,0.0001,-0.0073,0.0002,0.0053,-0.0001,0.0054,0.0041,0.0054,0.0028,0.0044,0,0,0,0,0]},{"header":{"parameterUnit":"m.s-1","parameterCategory":2,"la1":30.2991,"la2":30.254,"lo1":-89.0895,"lo2":-89.0444,"dy":0.0017,"dx":0.0017,"nx":28,"ny":28,"refTime":"2024-07-13T21:00:00:Z","depth":"2","parameterNumber":3,"parameterNumberName":"V-component_of_CURRENTS"},"data":[0,0,0,0,0,0,0,0,0,0,0,0,0,0,0,0,0,0,0,0,0,0,0,0,0,0,0,0,0,0,0,0,0,0,0,0,0,0,0,0,0,0,0,0,0,0,0,0,0,0,0,0,0,0,0,0,0,0,-0.0298,-0.0297,0,-0.0258,-0.0258,-0.0258,-0.0198,-0.0197,-0.0196,-0.0194,-0.0334,-0.0339,-0.0344,0,0,0,0,0,0,0,0,0,0,0,0,0,-0.0198,-0.0201,-0.0298,-0.0297,-0.0296,-0.0258,-0.0258,-0.0258,-0.0199,-0.0197,-0.0195,-0.0194,-0.0332,-0.0338,-0.0344,0,0,0,0,0,0,0,0,0,0,0,0,0,-0.0212,-0.0203,-0.0298,-0.0259,-0.0255,-0.0258,-0.0258,-0.0258,-0.0199,-0.0197,-0.0195,-0.0193,-0.033,-0.0337,-0.0345,-0.0433,0,0,-0.0368,-0.0371,0,0,0,0,0,0,0,0,-0.0212,-0.0216,-0.0266,-0.0262,-0.0257,-0.0228,-0.0273,-0.0324,-0.0199,-0.0224,-0.0194,-0.0192,-0.0314,-0.0323,-0.0323,-0.0439,-0.0445,-0.0368,-0.0373,-0.0376,-0.0378,0,0,0,0,0,0,0,-0.0211,-0.0217,-0.0286,-0.0265,-0.026,-0.0201,-0.0202,-0.0281,-0.0288,-0.0222,-0.0217,-0.0207,-0.0313,-0.0315,-0.0326,-0.0447,-0.0368,-0.0375,-0.038,-0.0382,-0.057,-0.0571,0,0,0,0,0,0,-0.0218,-0.0218,-0.0287,-0.0284,-0.0225,-0.0205,-0.0206,-0.0242,-0.0283,-0.0284,-0.0209,-0.0204,-0.0303,-0.0317,-0.0331,-0.0388,-0.0376,-0.0383,-0.0387,-0.057,-0.057,-0.0571,0,0,0,0,0,0,-0.0217,-0.0227,-0.0289,-0.0243,-0.0246,-0.0209,-0.025,-0.0243,-0.0217,-0.027,-0.0275,-0.0186,-0.0302,-0.032,-0.04,-0.0395,-0.0387,-0.0393,-0.0569,-0.057,-0.0571,-0.0535,0,0,0,0,0,0,-0.0215,-0.0228,-0.0244,-0.0246,-0.0249,-0.0273,-0.0251,-0.0243,-0.0214,-0.0207,-0.0255,-0.0266,-0.0302,-0.0388,-0.0407,-0.0405,-0.0399,-0.0569,-0.057,-0.057,-0.0535,-0.0534,-0.0533,0,0,0,0,0,-0.0213,-0.0236,-0.0247,-0.0253,-0.028,-0.0273,-0.0269,-0.0236,-0.0215,-0.0205,-0.0252,-0.0263,-0.0405,-0.0397,-0.0418,-0.0417,-0.0568,-0.0569,-0.057,-0.0536,-0.0534,-0.0533,0,0,0,0,0,0,-0.0202,-0.0233,-0.0243,-0.0278,-0.027,-0.026,-0.0245,-0.0228,-0.0253,-0.0252,-0.0298,-0.0315,-0.0373,-0.0411,-0.0399,-0.0472,-0.0478,-0.0484,-0.0444,-0.0444,-0.0443,-0.041,-0.0405,0,0,0,0,0,-0.0213,-0.0238,-0.0253,-0.0276,-0.0276,-0.0262,-0.0249,-0.0234,-0.0254,-0.0257,-0.029,-0.0339,-0.04,-0.0432,-0.0488,-0.0554,-0.0559,-0.0558,-0.0557,-0.0556,-0.0543,-0.058,-0.058,-0.0575,-0.0574,-0.0574,0,0,-0.0219,-0.0232,-0.025,-0.0273,-0.0268,-0.027,-0.0249,-0.0233,-0.0236,-0.0281,-0.0303,-0.0345,-0.0418,-0.0474,-0.0502,-0.0504,-0.0554,-0.0557,-0.0556,-0.0544,-0.0581,-0.0581,-0.0582,-0.0575,-0.0575,-0.0575,0,0,-0.0213,-0.0255,-0.0262,-0.0261,-0.0249,-0.0256,-0.0248,-0.0242,-0.0239,-0.0282,-0.0306,-0.0347,-0.0435,-0.0474,-0.0512,-0.0547,-0.0548,-0.0551,-0.0525,-0.0561,-0.0561,-0.0562,-0.0536,-0.0534,-0.055,-0.055,-0.0549,0,-0.0212,-0.0235,-0.0255,-0.0248,-0.0242,-0.0251,-0.0243,-0.0261,-0.0276,-0.0284,-0.0284,-0.0379,-0.0434,-0.0504,-0.0502,-0.0543,-0.054,-0.0524,-0.0558,-0.0559,-0.056,-0.0534,-0.0532,-0.0548,-0.0548,-0.0548,-0.0548,0,-0.0208,-0.0217,-0.0216,-0.0231,-0.023,-0.0225,-0.0252,-0.0256,-0.0262,-0.0274,-0.032,-0.039,-0.0428,-0.0456,-0.0496,-0.0526,-0.0511,-0.0552,-0.0556,-0.0558,-0.053,-0.0529,-0.0546,-0.0546,-0.0547,-0.0547,0,0,-0.024,-0.0218,-0.0218,-0.0204,-0.0218,-0.0216,-0.0241,-0.0261,-0.0258,-0.0295,-0.0295,-0.0392,-0.0387,-0.0428,-0.0469,-0.0506,-0.0504,-0.052,-0.0523,-0.0481,-0.053,-0.0405,-0.0393,-0.0551,-0.0551,-0.0552,-0.0494,0,-0.0227,-0.0198,-0.02,-0.0186,-0.0177,-0.0194,-0.0207,-0.0228,-0.0252,-0.0262,-0.0329,-0.035,-0.0393,-0.0388,-0.0437,-0.0501,-0.0505,-0.0512,-0.0544,-0.0543,-0.0424,-0.039,-0.0434,-0.0377,-0.0493,-0.0493,-0.0493,0,-0.0228,-0.0203,-0.0173,-0.0145,-0.0144,-0.0142,-0.015,-0.0159,-0.0197,-0.0201,-0.0232,-0.027,-0.0324,-0.0353,-0.044,-0.0439,-0.046,-0.0506,-0.0506,-0.0401,-0.0418,-0.0402,-0.0371,-0.0492,-0.0492,-0.0492,-0.0492,0,-0.0226,-0.0192,-0.0161,-0.0155,-0.0133,-0.012,-0.0114,-0.0135,-0.0131,-0.0144,-0.013,-0.0208,-0.0221,-0.03,-0.0365,-0.0402,-0.0442,-0.0512,-0.041,-0.04,-0.0447,-0.0439,-0.0538,-0.0538,-0.0539,-0.0539,-0.0539,0,-0.022,-0.0196,-0.0149,-0.0133,-0.0099,-0.0086,-0.0062,-0.0057,-0.0049,-0.0038,-0.008,-0.0083,-0.0209,-0.0251,-0.0329,-0.0336,-0.0403,-0.0374,-0.0377,-0.0429,-0.0421,-0.0545,-0.0546,-0.0537,-0.0537,-0.0537,-0.0538,0,-0.0221,-0.0192,-0.0152,-0.0107,-0.0092,-0.0064,-0.0019,0.0002,0.0024,0.0044,0.0055,0.0013,-0.0021,-0.011,-0.0216,-0.025,-0.03,-0.0275,-0.0279,-0.0281,-0.0242,-0.0243,-0.0172,-0.0167,-0.0163,-0.0159,-0.0156,0,-0.0215,-0.019,-0.0134,-0.0105,-0.0079,-0.0035,-0.0002,0.0034,0.0059,0.0094,0.0105,0.0108,0.0109,0.0051,-0.002,-0.0062,-0.0152,-0.0104,-0.0183,-0.0193,-0.0205,-0.0212,-0.0218,-0.0233,-0.0231,-0.023,-0.0228,0,-0.02,-0.0179,-0.0144,-0.0085,-0.0041,0.0008,0.006,0.0083,0.0129,0.017,0.0201,0.0218,0.0209,0.0135,0.0141,0.0088,-0.0107,-0.0062,-0.0113,-0.029,-0.0239,-0.0254,-0.0261,-0.0213,-0.0215,-0.0216,-0.0217,-0.0217,-0.0192,-0.0164,-0.0115,-0.0064,-0.0003,0.0058,0.0094,0.0154,0.0217,0.0281,0.0263,0.0292,0.0156,0.0172,0.0141,0.0131,0.0103,-0.0001,-0.0013,-0.0026,-0.0013,0.0044,0.0128,0.0129,0.0129,0.0129,0.013,0,-0.0189,-0.0151,-0.0094,-0.0022,0.0051,0.0082,0.0147,0.019,0.0277,0.031,0.0361,0.0237,0.022,0.0139,0.015,0.0147,0.0084,0.0119,-0.0035,-0.0049,-0.0062,-0.0058,0.0075,0.0076,0.0076,0.0076,0,0,-0.018,-0.0138,-0.0102,0.0015,0.0081,0.0177,0.0218,0.0286,0.0316,0.0336,0.0335,0.03,0.0183,0.0123,0.007,0.0092,0.0043,0.0111,0.0148,-0.0043,-0.0055,-0.0144,-0.0152,0,0,0,0,0]}],[{"header":{"parameterUnit":"m.s-1","parameterCategory":2,"la1":30.2991,"la2":30.254,"lo1":-89.0895,"lo2":-89.0444,"dy":0.0017,"dx":0.0017,"nx":28,"ny":28,"refTime":"2024-07-13T21:00:00:Z","depth":"4","parameterNumber":2,"parameterNumberName":"U-component_of_CURRENTS"},"data":[0,0,0,0,0,0,0,0,0,0,0,0,0,0,0,0,0,0,0,0,0,0,0,0,0,0,0,0,0,0,0,0,0,0,0,0,0,0,0,0,0,0,0,0,0,0,0,0,0,0,0,0,0,0,0,0,0,0,-0.068,-0.068,0,-0.0679,-0.068,-0.068,-0.0753,-0.0754,-0.0755,-0.0756,-0.0852,-0.0853,-0.0854,0,0,0,0,0,0,0,0,0,0,0,0,0,-0.0643,-0.0645,-0.0681,-0.068,-0.0679,-0.0679,-0.068,-0.0681,-0.0752,-0.0754,-0.0756,-0.0757,-0.0851,-0.0853,-0.0854,0,0,0,0,0,0,0,0,0,0,0,0,0,-0.0659,-0.0645,-0.0681,-0.071,-0.0712,-0.0679,-0.068,-0.0681,-0.0752,-0.0754,-0.0756,-0.0758,-0.0851,-0.0853,-0.0855,-0.0828,0,0,-0.0861,-0.0862,0,0,0,0,0,0,0,0,-0.0658,-0.0661,-0.0706,-0.0708,-0.071,-0.0712,-0.0701,-0.0732,-0.0752,-0.0744,-0.0756,-0.0759,-0.0808,-0.0814,-0.0817,-0.0833,-0.0837,-0.0861,-0.0862,-0.0863,-0.0864,0,0,0,0,0,0,0,-0.0657,-0.0661,-0.0687,-0.0705,-0.0708,-0.0688,-0.0694,-0.0707,-0.0772,-0.0745,-0.0748,-0.0737,-0.0811,-0.0815,-0.082,-0.0838,-0.0861,-0.0863,-0.0864,-0.0865,-0.0936,-0.0937,0,0,0,0,0,0,-0.0647,-0.0661,-0.0687,-0.0686,-0.0681,-0.0687,-0.0694,-0.0715,-0.077,-0.0778,-0.0735,-0.074,-0.0811,-0.0818,-0.0824,-0.0921,-0.0863,-0.0865,-0.0866,-0.0936,-0.0937,-0.0937,0,0,0,0,0,0,-0.0647,-0.0651,-0.0687,-0.0666,-0.0668,-0.0686,-0.0708,-0.0714,-0.0756,-0.076,-0.0772,-0.0776,-0.0813,-0.0821,-0.084,-0.0921,-0.0866,-0.0868,-0.0935,-0.0936,-0.0937,-0.1036,0,0,0,0,0,0,-0.0646,-0.0652,-0.0682,-0.0666,-0.0669,-0.0687,-0.0706,-0.0712,-0.074,-0.0748,-0.0798,-0.0806,-0.0815,-0.0837,-0.0842,-0.0923,-0.0869,-0.0934,-0.0935,-0.0937,-0.1032,-0.104,-0.1047,0,0,0,0,0,-0.0646,-0.0672,-0.0685,-0.0688,-0.0706,-0.0686,-0.0687,-0.0708,-0.0741,-0.0757,-0.0775,-0.0807,-0.0851,-0.0837,-0.0844,-0.0928,-0.0933,-0.0935,-0.0936,-0.1028,-0.1038,-0.1047,0,0,0,0,0,0,-0.0671,-0.068,-0.0695,-0.0725,-0.0714,-0.0696,-0.0719,-0.0726,-0.0754,-0.0772,-0.0795,-0.0803,-0.0855,-0.0856,-0.0841,-0.0947,-0.0907,-0.0909,-0.0974,-0.0984,-0.0992,-0.1037,-0.0871,0,0,0,0,0,-0.0687,-0.0708,-0.0704,-0.0721,-0.0736,-0.0736,-0.074,-0.074,-0.0745,-0.0764,-0.0794,-0.0826,-0.0858,-0.0891,-0.0902,-0.095,-0.0921,-0.1011,-0.1019,-0.1026,-0.1063,-0.1045,-0.1056,-0.0943,-0.0943,-0.0943,0,0,-0.0695,-0.07,-0.0714,-0.0726,-0.0737,-0.075,-0.0748,-0.0752,-0.0763,-0.0766,-0.0821,-0.0846,-0.0868,-0.0923,-0.0952,-0.0945,-0.1033,-0.1028,-0.1034,-0.1069,-0.1048,-0.1059,-0.1069,-0.0944,-0.0943,-0.0943,0,0,-0.0699,-0.0742,-0.0765,-0.0765,-0.0765,-0.0767,-0.0777,-0.0782,-0.0804,-0.0828,-0.0845,-0.0918,-0.0952,-0.1004,-0.1031,-0.1087,-0.106,-0.1093,-0.1198,-0.1179,-0.1189,-0.1197,-0.1138,-0.1141,-0.1116,-0.1116,-0.1116,0,-0.0711,-0.0742,-0.0761,-0.0776,-0.0784,-0.0787,-0.0806,-0.0815,-0.0817,-0.0845,-0.086,-0.097,-0.1007,-0.11,-0.1142,-0.1119,-0.1068,-0.1166,-0.1192,-0.12,-0.1207,-0.1144,-0.1146,-0.1121,-0.112,-0.112,-0.1119,0,-0.0723,-0.0757,-0.0771,-0.0806,-0.0821,-0.0824,-0.0838,-0.0855,-0.0897,-0.0923,-0.1018,-0.107,-0.1159,-0.1187,-0.12,-0.129,-0.122,-0.1188,-0.1174,-0.1225,-0.1154,-0.1154,-0.1128,-0.1126,-0.1125,-0.1123,0,0,-0.0721,-0.0772,-0.0783,-0.0807,-0.0836,-0.0842,-0.0874,-0.0912,-0.0966,-0.1017,-0.1119,-0.1225,-0.1295,-0.133,-0.1366,-0.1389,-0.1411,-0.1334,-0.1331,-0.1288,-0.1324,-0.1204,-0.1191,-0.1366,-0.1367,-0.1368,-0.1242,0,-0.0728,-0.0765,-0.0795,-0.0836,-0.0864,-0.0883,-0.0924,-0.0956,-0.1015,-0.1108,-0.1203,-0.1314,-0.1332,-0.1417,-0.1447,-0.1409,-0.142,-0.1446,-0.1273,-0.1268,-0.1166,-0.1192,-0.1373,-0.1241,-0.1241,-0.1241,-0.1241,0,-0.0733,-0.0758,-0.0809,-0.0864,-0.0889,-0.0923,-0.1003,-0.1043,-0.1151,-0.1228,-0.1359,-0.1406,-0.1513,-0.1517,-0.1491,-0.1491,-0.1445,-0.1402,-0.1394,-0.1261,-0.115,-0.1187,-0.124,-0.124,-0.124,-0.124,-0.124,0,-0.071,-0.0768,-0.0815,-0.0829,-0.0899,-0.0938,-0.0999,-0.1092,-0.1157,-0.1333,-0.1407,-0.1507,-0.1564,-0.1534,-0.1473,-0.1472,-0.1393,-0.1362,-0.1204,-0.1191,-0.1294,-0.1287,-0.1355,-0.1355,-0.1356,-0.1356,-0.1356,0,-0.0695,-0.0731,-0.0816,-0.0833,-0.09,-0.0972,-0.1073,-0.1149,-0.1302,-0.139,-0.1503,-0.1543,-0.1565,-0.1509,-0.1471,-0.1322,-0.1377,-0.1234,-0.1166,-0.1329,-0.1328,-0.1291,-0.1285,-0.1351,-0.1352,-0.1353,-0.1354,0,-0.0662,-0.0716,-0.076,-0.0852,-0.0887,-0.0953,-0.11,-0.1159,-0.1329,-0.1446,-0.1506,-0.1551,-0.1437,-0.1404,-0.1317,-0.1274,-0.1181,-0.1122,-0.1281,-0.122,-0.0986,-0.0987,-0.0915,-0.091,-0.0906,-0.0902,-0.09,0,-0.0651,-0.0667,-0.0759,-0.0786,-0.0836,-0.0944,-0.0992,-0.1173,-0.123,-0.1398,-0.1411,-0.1373,-0.1365,-0.1105,-0.1118,-0.1003,-0.0998,-0.0978,-0.1032,-0.1008,-0.0949,-0.0956,-0.0962,-0.0893,-0.0892,-0.0891,-0.089,0,-0.0605,-0.0645,-0.0678,-0.0731,-0.0786,-0.0831,-0.092,-0.0965,-0.1149,-0.1308,-0.1251,-0.1213,-0.1069,-0.0955,-0.0882,-0.0822,-0.1016,-0.0934,-0.0943,-0.0993,-0.098,-0.0927,-0.0938,-0.0875,-0.0877,-0.0878,-0.0879,0,-0.057,-0.0576,-0.0614,-0.0661,-0.0698,-0.0683,-0.0755,-0.0774,-0.0857,-0.1057,-0.1004,-0.0983,-0.1004,-0.0857,-0.0796,-0.072,-0.0699,-0.0719,-0.0739,-0.0756,-0.0772,-0.0737,-0.0506,0,0,0,0,0,-0.053,-0.0522,-0.0538,-0.0552,-0.0569,-0.0591,-0.0668,-0.0742,-0.0914,-0.0823,-0.0931,-0.0802,-0.0716,-0.0686,-0.0557,-0.0715,-0.0703,-0.0574,-0.0737,-0.0794,-0.0811,-0.0852,0,0,0,0,0,0,-0.0502,-0.0509,-0.0508,-0.0436,-0.0423,-0.0417,-0.0456,-0.0563,-0.0506,-0.0685,-0.0571,-0.0756,-0.0596,-0.0726,-0.053,-0.0535,-0.0624,-0.0593,-0.0591,-0.0785,-0.08,-0.0814,-0.0861,0,0,0,0,0]},{"header":{"parameterUnit":"m.s-1","parameterCategory":2,"la1":30.2991,"la2":30.254,"lo1":-89.0895,"lo2":-89.0444,"dy":0.0017,"dx":0.0017,"nx":28,"ny":28,"refTime":"2024-07-13T21:00:00:Z","depth":"4","parameterNumber":3,"parameterNumberName":"V-component_of_CURRENTS"},"data":[0,0,0,0,0,0,0,0,0,0,0,0,0,0,0,0,0,0,0,0,0,0,0,0,0,0,0,0,0,0,0,0,0,0,0,0,0,0,0,0,0,0,0,0,0,0,0,0,0,0,0,0,0,0,0,0,0,0,0.0152,0.0152,0,0.0187,0.0187,0.0188,0.0213,0.0214,0.0214,0.0215,0.0269,0.027,0.0271,0,0,0,0,0,0,0,0,0,0,0,0,0,0.0095,0.0096,0.0151,0.0152,0.0153,0.0187,0.0187,0.0188,0.0213,0.0214,0.0214,0.0215,0.0268,0.027,0.0271,0,0,0,0,0,0,0,0,0,0,0,0,0,0.0121,0.0096,0.0151,0.0172,0.0175,0.0187,0.0188,0.0188,0.0213,0.0214,0.0215,0.0215,0.0268,0.0269,0.0271,0.0265,0,0,0.0275,0.0276,0,0,0,0,0,0,0,0,0.0119,0.0123,0.0168,0.0171,0.0174,0.0199,0.0188,0.0216,0.0213,0.0195,0.0215,0.0216,0.0249,0.0252,0.0252,0.0268,0.027,0.0276,0.0276,0.0277,0.0277,0,0,0,0,0,0,0,0.0118,0.0121,0.0163,0.0169,0.0172,0.0176,0.0181,0.0193,0.0215,0.0197,0.02,0.0208,0.025,0.0251,0.0254,0.0271,0.0275,0.0277,0.0278,0.0278,0.0302,0.0301,0,0,0,0,0,0,0.0119,0.012,0.0161,0.0164,0.0151,0.0177,0.0182,0.0188,0.0215,0.022,0.0208,0.0209,0.0248,0.0252,0.0256,0.027,0.0277,0.0278,0.0279,0.0302,0.0301,0.0301,0,0,0,0,0,0,0.0118,0.0122,0.016,0.0145,0.0151,0.0178,0.0184,0.0188,0.0201,0.0223,0.0229,0.0218,0.0249,0.0254,0.0266,0.0272,0.0279,0.028,0.0302,0.0302,0.0301,0.0287,0,0,0,0,0,0,0.0116,0.0122,0.0122,0.0145,0.0152,0.0175,0.0184,0.0188,0.0206,0.0209,0.0234,0.0239,0.025,0.0263,0.0267,0.0274,0.0282,0.0302,0.0302,0.0301,0.0288,0.0286,0.0285,0,0,0,0,0,0.0114,0.0113,0.0122,0.0127,0.0153,0.0176,0.0179,0.0198,0.0206,0.0212,0.0221,0.0239,0.0263,0.0264,0.0269,0.0277,0.0303,0.0302,0.0302,0.0289,0.0287,0.0285,0,0,0,0,0,0,0.0088,0.0116,0.0126,0.0134,0.0158,0.0182,0.0187,0.0202,0.0213,0.0213,0.0234,0.0239,0.0251,0.0263,0.0263,0.028,0.0287,0.0287,0.0276,0.0274,0.0272,0.027,0.0283,0,0,0,0,0,0.0082,0.0089,0.012,0.0126,0.0138,0.0163,0.0174,0.0188,0.0204,0.0211,0.0229,0.0242,0.0249,0.0261,0.0269,0.028,0.0296,0.0288,0.0286,0.0285,0.0286,0.0318,0.032,0.0299,0.0299,0.0299,0,0,0.0073,0.0091,0.0094,0.0121,0.0138,0.0146,0.0171,0.0188,0.0191,0.0214,0.0222,0.0237,0.0249,0.0257,0.0264,0.0271,0.0296,0.0284,0.0283,0.0285,0.0317,0.032,0.0322,0.0299,0.0299,0.0299,0,0,0.0059,0.0076,0.0077,0.0093,0.0122,0.0136,0.0145,0.0174,0.0185,0.0195,0.0208,0.0231,0.0244,0.0259,0.0265,0.0262,0.0283,0.0262,0.026,0.0291,0.0294,0.0296,0.0307,0.0311,0.0267,0.0267,0.0267,0,0.0049,0.0053,0.0082,0.0087,0.0091,0.0132,0.0129,0.0146,0.0174,0.0174,0.0196,0.0221,0.0246,0.0252,0.0255,0.0261,0.0271,0.0267,0.029,0.0293,0.0296,0.0307,0.0311,0.0266,0.0266,0.0266,0.0266,0,0.0038,0.0038,0.0041,0.0057,0.0065,0.0073,0.0098,0.0107,0.0128,0.0145,0.0164,0.0204,0.0221,0.0236,0.0248,0.0272,0.0269,0.0282,0.0297,0.0297,0.0309,0.0313,0.0265,0.0265,0.0265,0.0265,0,0,0.0021,0.0031,0.0031,0.002,0.0047,0.0047,0.005,0.006,0.0051,0.0103,0.0108,0.015,0.0184,0.0195,0.0226,0.0266,0.0301,0.0282,0.0284,0.0296,0.0352,0.0247,0.0242,0.0316,0.0317,0.0318,0.0349,0,0.0005,-0.0006,0.0004,-0.0018,-0.0025,-0.0005,-0.0014,-0.0004,0.0019,0.0037,0.0099,0.0119,0.0164,0.0182,0.0229,0.028,0.0313,0.029,0.0348,0.0349,0.0259,0.0244,0.0321,0.0352,0.0353,0.0354,0.0355,0,-0.0011,-0.0021,-0.0041,-0.0073,-0.0075,-0.0084,-0.0103,-0.0102,-0.0071,-0.0048,0.0,0.0049,0.0119,0.0165,0.026,0.024,0.0293,0.034,0.0343,0.0253,0.0252,0.0355,0.0363,0.0362,0.0362,0.0361,0.0361,0,-0.0043,-0.0061,-0.0085,-0.0089,-0.0106,-0.0126,-0.0137,-0.0131,-0.0144,-0.0089,-0.0077,0.0006,0.0057,0.0143,0.0244,0.0254,0.0344,0.0369,0.0321,0.0314,0.041,0.0407,0.0433,0.0433,0.0433,0.0433,0.0433,0,-0.0065,-0.0093,-0.0105,-0.0119,-0.0174,-0.0169,-0.0216,-0.0212,-0.0198,-0.0218,-0.0117,-0.0108,0.0058,0.0128,0.0222,0.0269,0.0325,0.031,0.0313,0.04,0.0396,0.0412,0.0409,0.0434,0.0434,0.0434,0.0434,0,-0.0098,-0.0097,-0.0139,-0.0169,-0.0188,-0.0227,-0.0275,-0.0307,-0.0279,-0.0292,-0.0271,-0.0182,-0.0113,0.0026,0.0162,0.0216,0.0292,0.0297,0.0361,0.0369,0.0248,0.0245,0.024,0.0237,0.0234,0.0231,0.0229,0,-0.0117,-0.0131,-0.0181,-0.0221,-0.0239,-0.0295,-0.034,-0.0342,-0.0365,-0.0359,-0.0363,-0.03,-0.0238,-0.0098,0.0021,0.0165,0.0188,0.0238,0.0262,0.0224,0.0228,0.0229,0.0229,0.0224,0.0224,0.0223,0.0222,0,-0.0156,-0.0165,-0.0198,-0.0269,-0.0324,-0.0392,-0.0443,-0.046,-0.0464,-0.0455,-0.0425,-0.0356,-0.0296,-0.016,-0.0051,0.0053,0.0215,0.0208,0.0216,0.0239,0.0205,0.0212,0.0216,0.0212,0.0213,0.0214,0.0215,0,-0.0189,-0.0221,-0.0252,-0.0313,-0.0394,-0.0454,-0.0479,-0.0498,-0.0509,-0.0478,-0.0493,-0.0401,-0.0339,-0.0227,-0.0139,-0.0044,-0.002,0.0048,0.0065,0.0077,0.0013,-0.0055,-0.0136,0,0,0,0,0,-0.0216,-0.024,-0.03,-0.0357,-0.0436,-0.0469,-0.0537,-0.0546,-0.0552,-0.0531,-0.0498,-0.0443,-0.0334,-0.0287,-0.021,-0.0222,-0.0022,-0.0135,0.0062,0.0154,0.0166,0.0108,0,0,0,0,0,0,-0.0241,-0.0284,-0.0293,-0.0371,-0.0416,-0.0492,-0.053,-0.0536,-0.0508,-0.0502,-0.0429,-0.0421,-0.0301,-0.0353,-0.0198,-0.0183,-0.005,-0.0087,-0.0086,0.0148,0.0158,0.0168,0.0112,0,0,0,0,0]}]]